Location: Clermont
(50.2608°N, 4.3172°E)
Time: 05:52:53
(UTC+00:00)

Lacrosse 4 Rocket - Pass Details

Date: 13 August 2020
Orbit: 544 x 615 km, 68.0° (Epoch: 23 September)

Event Time Altitude Azimuth Distance (km) Brightness Sun altitude
Exits shadow 21:29:52 18° 80° (E) 1,425 3.2 -18.7°
Drops below altitude 10° 21:31:35 10° 59° (ENE) 1,875 4.0 -18.9°
Sets 21:34:07 0° 45° (NE) 2,764 5.0 -19.1°
